Location: Sungai Laei
(2.6000°N, 113.7167°E)
Time: 10:52:07
(UTC+00:00)

Cosmos 2369 Rocket - Pass Details

Date: 22 May 2022
Orbit: 830 x 851 km, 71.0° (Epoch: 06 July)

Event Time Altitude Azimuth Distance (km) Brightness Sun altitude
Rises 21:46:44 0° 325° (NW) 3,359 5.2 -7.3°
Reaches altitude 10° 21:49:26 10° 314° (NW) 2,430 4.4 -6.7°
Maximum altitude 21:54:12 29° 255° (WSW) 1,472 2.9 -5.6°
Drops below altitude 10° 21:59:00 10° 196° (SSW) 2,446 4.3 -4.4°
Sets 22:01:45 0° 185° (S) 3,385 5.1 -3.8°
